Terminal Aerodrome Forecast
Issued by NWS Charleston, WV

Current Version | Previous Version | Graphics & Text | Print | Product List | Glossary On
Versions: 1 2 3 4 5 6 7 8 9 10 11 12 13 14 15 16 17 18 19 20 21 22 23 24 25
000
FTUS41 KRLX 240901 AAB
TAFHTS
TAF AMD
KHTS 240901Z 2409/2506 00000KT 1SM BR SCT002 SCT200
     FM241200 00000KT 2SM BR FEW001
     FM241300 00000KT P6SM FEW005
     FM241500 VRB03KT P6SM SCT040=

USA.gov is the U.S. government's official web portal to all federal, state and local government web resources and services.